sat.trackr.live / text

‹ back to catalog

STARLINK-33555

NORAD 62104 · 2024-220S

PAYLOAD ACTIVE UNKNOWN

§ Identity

Operator
Country
US
Launch date
2024-11-25
Launch site
AFETR
Launch vehicle
Mass (kg)
RCS (m²)

Purposes: comms

External: N2YO · Heavens-Above · Gunter

§ Orbital elements

Epoch: 2026-09-21T11:35:42.874368Z

Period
94.27 min
Inclination
43.0019°
Eccentricity
0.0000834
Mean motion
15.27592472 rev/d
Perigee alt
482.4 km
Apogee alt
483.6 km
Semi-major
6,861.1 km
B*
6.0480e-4
RAAN
179.9427°
Arg perigee
28.7528°
Mean anomaly
331.3370°
Rev number
10,310

§ Raw data

STARLINK-335551 62104U 24220S   26264.48313512  .00016424  00000+0  60480-3 0  99972 62104  43.0019 179.9427 0000834  28.7528 331.3370 15.27592472103107

JSON: /api/v1/satellites/62104 · /tle

For live sub-satellite position, see the globe view (requires WebGL).

§ Visibility from observer

Set your observer location to see the next 7 days of passes ≥ 10°. The values pass through the URL so the page stays shareable.

No JS? Fill the form by hand. The geolocation button needs JavaScript.